EN

Hourly Weather Lachowka

Today, 28 July, Wednesday

Time Temperature Precipitation Wind Pressure Humidity
00:00 +20°C° 0 mm 2 mps 744 mmHg 80%
01:00 +20°C° 0 mm 2 mps 744 mmHg 81%
02:00 +20°C° 0 mm 2 mps 744 mmHg 81%
03:00 +20°C° 0 mm 2 mps 744 mmHg 81%
04:00 +19°C° 0 mm 2 mps 744 mmHg 81%
05:00 +19°C° 0 mm 2 mps 744 mmHg 81%
06:00 +21°C° 0 mm 2 mps 744 mmHg 76%
07:00 +22°C° 0 mm 3 mps 744 mmHg 70%
08:00 +25°C° 0 mm 3 mps 744 mmHg 63%
09:00 +26°C° 0 mm 3 mps 744 mmHg 57%
10:00 +28°C° 0 mm 2 mps 744 mmHg 50%
11:00 +30°C° 0 mm 2 mps 744 mmHg 44%
12:00 +30°C° 0 mm 2 mps 744 mmHg 43%
13:00 +31°C° 0 mm 2 mps 744 mmHg 41%
14:00 +31°C° 0 mm 3 mps 744 mmHg 40%
15:00 +31°C° 0 mm 2 mps 743 mmHg 41%
16:00 +31°C° 0 mm 2 mps 743 mmHg 41%
17:00 +31°C° 0 mm 2 mps 743 mmHg 42%
18:00 +30°C° 0 mm 2 mps 742 mmHg 47%
19:00 +28°C° 0 mm 2 mps 742 mmHg 53%
20:00 +27°C° 0 mm 2 mps 742 mmHg 58%
21:00 +25°C° 0 mm 2 mps 742 mmHg 62%
22:00 +24°C° 0 mm 2 mps 742 mmHg 66%
23:00 +22°C° 0 mm 3 mps 742 mmHg 71%

Tomorrow, 29 July, Thursday

Time Temperature Precipitation Wind Pressure Humidity
00:00 +21°C° 0.3 mm 3 mps 742 mmHg 78%
01:00 +20°C° 0.3 mm 3 mps 742 mmHg 84%
02:00 +19°C° 0.3 mm 3 mps 742 mmHg 91%
03:00 +19°C° 0.8 mm 3 mps 742 mmHg 93%
04:00 +19°C° 0.8 mm 2 mps 742 mmHg 95%
05:00 +19°C° 0.8 mm 2 mps 742 mmHg 96%
06:00 +19°C° 0 mm 2 mps 742 mmHg 95%
07:00 +20°C° 0 mm 2 mps 742 mmHg 94%
08:00 +20°C° 0 mm 3 mps 742 mmHg 92%
09:00 +21°C° 0 mm 3 mps 742 mmHg 88%
10:00 +21°C° 0 mm 3 mps 743 mmHg 84%
11:00 +22°C° 0 mm 3 mps 743 mmHg 81%
12:00 +25°C° 0.1 mm 3 mps 743 mmHg 69%
13:00 +27°C° 0.1 mm 4 mps 743 mmHg 58%
14:00 +29°C° 0.1 mm 5 mps 742 mmHg 47%
15:00 +28°C° 0 mm 5 mps 742 mmHg 47%
16:00 +28°C° 0 mm 6 mps 742 mmHg 47%
17:00 +27°C° 0 mm 6 mps 742 mmHg 48%
18:00 +26°C° 0 mm 5 mps 742 mmHg 52%
19:00 +25°C° 0 mm 3 mps 742 mmHg 57%
20:00 +23°C° 0 mm 2 mps 742 mmHg 61%
21:00 +21°C° 0 mm 2 mps 742 mmHg 61%
22:00 +21°C° 0 mm 2 mps 742 mmHg 61%
23:00 +20°C° 0 mm 2 mps 742 mmHg 61%

Day after tomorrow, 30 July, Friday

Time Temperature Precipitation Wind Pressure Humidity
00:00 +19°C° 0 mm 2 mps 742 mmHg 64%
01:00 +18°C° 0 mm 2 mps 742 mmHg 66%
02:00 +17°C° 0 mm 2 mps 743 mmHg 68%
03:00 +17°C° 0 mm 2 mps 743 mmHg 68%
04:00 +17°C° 0 mm 2 mps 742 mmHg 68%
05:00 +16°C° 0 mm 3 mps 742 mmHg 68%
06:00 +18°C° 0 mm 3 mps 743 mmHg 63%
07:00 +20°C° 0 mm 4 mps 743 mmHg 59%
08:00 +21°C° 0 mm 4 mps 743 mmHg 54%
09:00 +23°C° 0 mm 4 mps 743 mmHg 50%
10:00 +25°C° 0 mm 5 mps 743 mmHg 47%
11:00 +26°C° 0 mm 5 mps 742 mmHg 43%
12:00 +27°C° 0 mm 5 mps 742 mmHg 41%
13:00 +28°C° 0 mm 5 mps 742 mmHg 38%
14:00 +29°C° 0 mm 6 mps 741 mmHg 36%
15:00 +29°C° 0 mm 6 mps 741 mmHg 36%
16:00 +29°C° 0 mm 6 mps 741 mmHg 37%
17:00 +29°C° 0 mm 6 mps 741 mmHg 37%
18:00 +27°C° 0 mm 5 mps 741 mmHg 44%
19:00 +25°C° 0 mm 4 mps 740 mmHg 50%
20:00 +23°C° 0 mm 2 mps 740 mmHg 57%
21:00 +21°C° 0 mm 2 mps 740 mmHg 59%
22:00 +20°C° 0 mm 2 mps 741 mmHg 60%
23:00 +20°C° 0 mm 1 mps 741 mmHg 62%

31 July, Saturday

Time Temperature Precipitation Wind Pressure Humidity
00:00 +20°C° 0 mm 1 mps 741 mmHg 63%
01:00 +19°C° 0 mm 1 mps 741 mmHg 63%
02:00 +19°C° 0 mm 1 mps 741 mmHg 64%
03:00 +19°C° 0 mm 1 mps 740 mmHg 63%
04:00 +19°C° 0 mm 1 mps 740 mmHg 63%
05:00 +19°C° 0 mm 1 mps 740 mmHg 63%
06:00 +20°C° 0 mm 2 mps 740 mmHg 60%
07:00 +21°C° 0 mm 2 mps 740 mmHg 56%
08:00 +24°C° 0 mm 2 mps 740 mmHg 53%
09:00 +26°C° 0 mm 3 mps 740 mmHg 51%
10:00 +27°C° 0 mm 4 mps 739 mmHg 49%
11:00 +29°C° 0 mm 4 mps 739 mmHg 48%
12:00 +27°C° 0.6 mm 5 mps 739 mmHg 59%
13:00 +24°C° 0.6 mm 6 mps 739 mmHg 70%
14:00 +22°C° 0.6 mm 6 mps 740 mmHg 82%
15:00 +22°C° 0.2 mm 6 mps 739 mmHg 78%
16:00 +23°C° 0.2 mm 5 mps 739 mmHg 73%
17:00 +25°C° 0.2 mm 4 mps 739 mmHg 69%
18:00 +23°C° 0.1 mm 4 mps 739 mmHg 67%
19:00 +22°C° 0.1 mm 3 mps 739 mmHg 64%
20:00 +21°C° 0.1 mm 3 mps 739 mmHg 62%
21:00 +20°C° 0 mm 3 mps 740 mmHg 64%
22:00 +19°C° 0 mm 3 mps 740 mmHg 65%
23:00 +18°C° 0 mm 3 mps 740 mmHg 67%

1 August, Sunday

Time Temperature Precipitation Wind Pressure Humidity
00:00 +17°C° 0 mm 3 mps 741 mmHg 68%
01:00 +16°C° 0 mm 3 mps 741 mmHg 69%
02:00 +14°C° 0 mm 3 mps 741 mmHg 70%
03:00 +14°C° 0 mm 3 mps 741 mmHg 71%
04:00 +14°C° 0 mm 3 mps 741 mmHg 72%
05:00 +13°C° 0 mm 3 mps 741 mmHg 74%
06:00 +16°C° 0 mm 3 mps 741 mmHg 69%
07:00 +18°C° 0 mm 3 mps 742 mmHg 64%
08:00 +20°C° 0 mm 4 mps 742 mmHg 59%
09:00 +21°C° 0 mm 3 mps 742 mmHg 55%
10:00 +22°C° 0 mm 3 mps 742 mmHg 51%
11:00 +25°C° 0 mm 3 mps 742 mmHg 47%
12:00 +25°C° 0 mm 3 mps 742 mmHg 46%
13:00 +25°C° 0 mm 3 mps 742 mmHg 45%
14:00 +26°C° 0 mm 2 mps 741 mmHg 43%
15:00 +24°C° 0.1 mm 3 mps 741 mmHg 52%
16:00 +21°C° 0.1 mm 3 mps 741 mmHg 61%
17:00 +19°C° 0.1 mm 4 mps 741 mmHg 70%
18:00 +18°C° 1 mm 3 mps 740 mmHg 76%
19:00 +17°C° 1 mm 3 mps 740 mmHg 83%
20:00 +16°C° 1 mm 2 mps 740 mmHg 89%
21:00 +14°C° 4.4 mm 3 mps 740 mmHg 92%
22:00 +14°C° 4.4 mm 3 mps 740 mmHg 94%
23:00 +13°C° 4.4 mm 4 mps 739 mmHg 97%

2 August, Monday

Time Temperature Precipitation Wind Pressure Humidity
00:00 +14°C° 2.1 mm 3 mps 739 mmHg 97%
01:00 +14°C° 2.1 mm 3 mps 739 mmHg 97%
02:00 +14°C° 2.1 mm 3 mps 739 mmHg 97%
03:00 +14°C° 0.3 mm 3 mps 739 mmHg 97%
04:00 +14°C° 0.3 mm 3 mps 739 mmHg 97%
05:00 +14°C° 0.3 mm 3 mps 739 mmHg 96%
06:00 +14°C° 0.1 mm 3 mps 740 mmHg 94%
07:00 +16°C° 0.1 mm 3 mps 740 mmHg 92%
08:00 +17°C° 0.1 mm 3 mps 740 mmHg 89%
09:00 +18°C° 0.3 mm 3 mps 740 mmHg 80%
10:00 +20°C° 0.3 mm 4 mps 740 mmHg 72%
11:00 +22°C° 0.3 mm 4 mps 740 mmHg 63%
12:00 +23°C° 0.3 mm 4 mps 740 mmHg 59%
13:00 +23°C° 0.3 mm 5 mps 740 mmHg 55%
14:00 +25°C° 0.3 mm 5 mps 740 mmHg 51%
15:00 +23°C° 0.2 mm 5 mps 741 mmHg 56%
16:00 +22°C° 0.2 mm 5 mps 741 mmHg 62%
17:00 +21°C° 0.2 mm 5 mps 741 mmHg 67%
18:00 +20°C° 0.1 mm 5 mps 741 mmHg 72%
19:00 +19°C° 0.1 mm 4 mps 741 mmHg 77%
20:00 +18°C° 0.1 mm 3 mps 741 mmHg 82%
21:00 +17°C° 0.1 mm 3 mps 742 mmHg 85%
22:00 +16°C° 0.1 mm 3 mps 742 mmHg 88%
23:00 +14°C° 0.1 mm 3 mps 742 mmHg 92%
Show more